| time (UTC) | temp C | wind direction | speed KPH | gust KPH | rain 1hr cm | rain 24hr cm | rain mn cm | humidity % | barometer mb |
| 20260507121101 | 14 | 40 | 20.9 | 32.2 | 0.00 | 0.05 | 0.00 | 81 | 1011.4 |
| 20260507120602 | 14 | 38 | 20.9 | 29.0 | 0.00 | 0.05 | 0.00 | 82 | 1010.9 |
| 20260507114602 | 14 | 84 | 17.7 | 25.7 | 0.00 | 0.05 | 0.00 | 82 | 1011.2 |
| 20260507113602 | 14 | 76 | 14.5 | 24.1 | 0.00 | 0.05 | 0.00 | 82 | 1011.1 |
| 20260507113103 | 14 | 53 | 12.9 | 27.4 | 0.00 | 0.05 | 0.00 | 83 | 1011.0 |
| 20260507112602 | 15 | 38 | 11.3 | 27.4 | 0.00 | 0.05 | 0.00 | 83 | 1011.1 |
| 20260507112102 | 15 | 65 | 16.1 | 25.7 | 0.00 | 0.05 | 0.00 | 83 | 1011.1 |
| 20260507111602 | 15 | 15 | 14.5 | 27.4 | 0.00 | 0.05 | 0.00 | 85 | 1011.0 |
| 20260507111101 | 15 | 65 | 17.7 | 27.4 | 0.00 | 0.05 | 0.00 | 85 | 1010.8 |
| 20260507110601 | 15 | 57 | 14.5 | 22.5 | 0.00 | 0.05 | 0.00 | 86 | 1010.4 |
| 20260507105609 | 15 | 31 | 14.5 | 25.7 | 0.00 | 0.05 | 0.00 | 85 | 1010.3 |
| 20260507105100 | 15 | 5 | 11.3 | 25.7 | 0.00 | 0.05 | 0.00 | 85 | 1010.3 |
| 20260507104601 | 15 | 63 | 12.9 | 24.1 | 0.00 | 0.05 | 0.00 | 85 | 1010.3 |
| 20260507104102 | 15 | 53 | 9.7 | 20.9 | 0.00 | 0.05 | 0.00 | 86 | 1010.2 |
| 20260507102101 | 15 | 67 | 9.7 | 25.7 | 0.00 | 0.05 | 0.00 | 85 | 1010.2 |
| 20260507101600 | 15 | 16 | 9.7 | 25.7 | 0.00 | 0.05 | 0.00 | 85 | 1010.3 |
| 20260507100602 | 15 | 26 | 11.3 | 27.4 | 0.00 | 0.05 | 0.00 | 84 | 1010.2 |
| 20260507095602 | 15 | 32 | 14.5 | 24.1 | 0.00 | 0.05 | 0.00 | 83 | 1010.1 |
| 20260507094602 | 15 | 338 | 12.9 | 25.7 | 0.00 | 0.05 | 0.00 | 83 | 1010.1 |
| 20260507094103 | 15 | 352 | 14.5 | 29.0 | 0.00 | 0.05 | 0.00 | 82 | 1010.1 |
| 20260507093603 | 15 | 43 | 14.5 | 29.0 | 0.00 | 0.05 | 0.00 | 83 | 1009.9 |
| 20260507092101 | 15 | 342 | 9.7 | 24.1 | 0.00 | 0.05 | 0.00 | 84 | 1009.8 |
| 20260507091602 | 15 | 15 | 11.3 | 30.6 | 0.00 | 0.05 | 0.00 | 84 | 1009.6 |
| 20260507090602 | 15 | 37 | 11.3 | 24.1 | 0.00 | 0.05 | 0.00 | 86 | 1009.6 |
| 20260507084602 | 16 | 62 | 14.5 | 24.1 | 0.00 | 0.05 | 0.00 | 87 | 1009.6 |
| 20260507083601 | 16 | 347 | 16.1 | 29.0 | 0.00 | 0.05 | 0.00 | 86 | 1009.5 |
| 20260507082102 | 17 | 24 | 16.1 | 25.7 | 0.00 | 0.05 | 0.00 | 84 | 1009.5 |
| 20260507081601 | 17 | 336 | 12.9 | 32.2 | 0.00 | 0.05 | 0.00 | 82 | 1009.7 |
| 20260507081105 | 17 | 11 | 16.1 | 32.2 | 0.00 | 0.05 | 0.00 | 81 | 1009.5 |
| 20260507080604 | 18 | 352 | 14.5 | 27.4 | 0.00 | 0.05 | 0.00 | 82 | 1009.3 |
| 20260507075600 | 20 | 22 | 8.0 | 11.3 | 0.00 | 0.05 | 0.00 | 86 | 1009.1 |
| 20260507075100 | 20 | 5 | 4.8 | 11.3 | 0.00 | 0.05 | 0.00 | 86 | 1009.1 |
| 20260507074602 | 20 | 348 | 8.0 | 9.7 | 0.00 | 0.05 | 0.00 | 86 | 1008.9 |
| 20260507074102 | 20 | 324 | 1.6 | 6.4 | 0.00 | 0.05 | 0.00 | 85 | 1008.9 |
| 20260507073602 | 20 | 333 | 3.2 | 6.4 | 0.00 | 0.05 | 0.00 | 85 | 1008.6 |
| 20260507072602 | 20 | 290 | 4.8 | 6.4 | 0.00 | 0.05 | 0.00 | 84 | 1008.5 |
| 20260507072102 | 20 | 300 | 3.2 | 8.0 | 0.00 | 0.05 | 0.00 | 84 | 1008.3 |
| 20260507071603 | 20 | 350 | 4.8 | 8.0 | 0.00 | 0.05 | 0.00 | 83 | 1008.1 |
| 20260507065103 | 21 | 0 | 3.2 | 8.0 | 0.00 | 0.05 | 0.00 | 80 | 1007.7 |
| 20260507064603 | 21 | 342 | 4.8 | 6.4 | 0.00 | 0.05 | 0.00 | 80 | 1007.8 |
| 20260507063602 | 21 | 328 | 1.6 | 12.9 | 0.00 | 0.05 | 0.00 | 79 | 1007.8 |
| 20260507063102 | 21 | 284 | 6.4 | 12.9 | 0.00 | 0.05 | 0.00 | 79 | 1007.9 |
| 20260507062101 | 21 | 268 | 6.4 | 12.9 | 0.00 | 0.05 | 0.00 | 78 | 1007.8 |
| 20260507061601 | 21 | 249 | 6.4 | 20.9 | 0.00 | 0.05 | 0.00 | 78 | 1007.8 |
| 20260507061101 | 21 | 262 | 11.3 | 20.9 | 0.00 | 0.05 | 0.00 | 78 | 1007.9 |
| 20260507060600 | 21 | 288 | 12.9 | 24.1 | 0.00 | 0.05 | 0.00 | 78 | 1007.9 |
| 20260507060100 | 21 | 279 | 19.3 | 24.1 | 0.00 | 0.05 | 0.00 | 78 | 1008.1 |
| 20260507055600 | 21 | 260 | 11.3 | 27.4 | 0.00 | 0.05 | 0.00 | 78 | 1008.1 |
| 20260507055101 | 21 | 275 | 16.1 | 27.4 | 0.00 | 0.05 | 0.00 | 78 | 1008.3 |
| 20260507054603 | 21 | 259 | 12.9 | 22.5 | 0.00 | 0.05 | 0.00 | 79 | 1008.4 |
| 20260507054101 | 21 | 265 | 14.5 | 22.5 | 0.00 | 0.05 | 0.00 | 79 | 1008.5 |
| 20260507053100 | 21 | 261 | 17.7 | 24.1 | 0.00 | 0.05 | 0.00 | 79 | 1008.7 |
| 20260507052101 | 21 | 261 | 12.9 | 24.1 | 0.00 | 0.05 | 0.00 | 79 | 1008.7 |
| 20260507051602 | 21 | 275 | 14.5 | 20.9 | 0.00 | 0.05 | 0.00 | 78 | 1008.5 |
| 20260507051100 | 21 | 279 | 9.7 | 17.7 | 0.00 | 0.05 | 0.00 | 78 | 1008.7 |
| 20260507050100 | 21 | 241 | 12.9 | 20.9 | 0.00 | 0.05 | 0.00 | 78 | 1008.9 |
| 20260507045602 | 21 | 248 | 12.9 | 20.9 | 0.00 | 0.05 | 0.00 | 77 | 1008.9 |
| 20260507044602 | 21 | 269 | 16.1 | 24.1 | 0.00 | 0.05 | 0.00 | 77 | 1008.8 |
| 20260507044102 | 21 | 250 | 14.5 | 25.7 | 0.00 | 0.05 | 0.00 | 77 | 1008.9 |
| 20260507043602 | 21 | 270 | 14.5 | 27.4 | 0.00 | 0.05 | 0.00 | 78 | 1009.0 |
| 20260507043101 | 21 | 264 | 20.9 | 27.4 | 0.00 | 0.05 | 0.00 | 78 | 1009.0 |
| 20260507042602 | 21 | 261 | 14.5 | 29.0 | 0.00 | 0.05 | 0.00 | 78 | 1009.0 |
| 20260507042101 | 21 | 269 | 16.1 | 29.0 | 0.00 | 0.05 | 0.00 | 78 | 1008.8 |
| 20260507040602 | 21 | 267 | 16.1 | 24.1 | 0.00 | 0.05 | 0.00 | 78 | 1008.8 |
| 20260507040101 | 21 | 254 | 14.5 | 25.7 | 0.00 | 0.05 | 0.00 | 78 | 1008.7 |
| 20260507035601 | 21 | 266 | 14.5 | 25.7 | 0.00 | 0.05 | 0.05 | 78 | 1008.7 |
| 20260507034602 | 21 | 241 | 16.1 | 27.4 | 0.00 | 0.05 | 0.05 | 78 | 1008.6 |
| 20260507034100 | 21 | 285 | 9.7 | 24.1 | 0.00 | 0.05 | 0.05 | 78 | 1008.7 |
| 20260507033100 | 21 | 257 | 9.7 | 24.1 | 0.00 | 0.05 | 0.05 | 78 | 1008.8 |
| 20260507032603 | 21 | 263 | 14.5 | 24.1 | 0.00 | 0.05 | 0.05 | 79 | 1008.7 |
| 20260507030601 | 21 | 220 | 4.8 | 14.5 | 0.00 | 0.05 | 0.05 | 78 | 1008.9 |
| 20260507025602 | 21 | 223 | 6.4 | 14.5 | 0.00 | 0.05 | 0.05 | 78 | 1008.9 |
| 20260507025103 | 21 | 267 | 9.7 | 14.5 | 0.00 | 0.05 | 0.05 | 78 | 1008.7 |
| 20260507024602 | 21 | 269 | 4.8 | 12.9 | 0.00 | 0.05 | 0.05 | 78 | 1008.8 |
| 20260507023102 | 21 | 268 | 9.7 | 17.7 | 0.00 | 0.05 | 0.05 | 77 | 1009.1 |
| 20260507022602 | 21 | 268 | 8.0 | 17.7 | 0.00 | 0.05 | 0.05 | 78 | 1009.1 |
| 20260507021603 | 21 | 222 | 11.3 | 19.3 | 0.00 | 0.05 | 0.05 | 78 | 1008.8 |
| 20260507021101 | 21 | 227 | 4.8 | 19.3 | 0.00 | 0.05 | 0.05 | 78 | 1008.8 |
| 20260507020601 | 21 | 233 | 9.7 | 19.3 | 0.00 | 0.05 | 0.05 | 78 | 1009.0 |
| 20260507015604 | 20 | 242 | 4.8 | 12.9 | 0.00 | 0.05 | 0.05 | 78 | 1009.0 |
| 20260507015102 | 20 | 257 | 4.8 | 12.9 | 0.00 | 0.05 | 0.05 | 78 | 1009.1 |
| 20260507014602 | 20 | 190 | 3.2 | 9.7 | 0.00 | 0.05 | 0.05 | 78 | 1009.1 |
| 20260507014102 | 20 | 236 | 4.8 | 6.4 | 0.00 | 0.05 | 0.05 | 78 | 1009.2 |
| 20260507013602 | 20 | 238 | 3.2 | 6.4 | 0.00 | 0.05 | 0.05 | 78 | 1009.1 |
| 20260507013103 | 20 | 239 | 3.2 | 6.4 | 0.00 | 0.05 | 0.05 | 78 | 1009.1 |
| 20260507012602 | 20 | 234 | 3.2 | 6.4 | 0.00 | 0.05 | 0.05 | 78 | 1009.1 |
| 20260507012102 | 20 | 228 | 3.2 | 6.4 | 0.00 | 0.05 | 0.05 | 78 | 1009.4 |
| 20260507011607 | 20 | 234 | 3.2 | 6.4 | 0.00 | 0.05 | 0.05 | 77 | 1009.3 |
| 20260507011103 | 21 | 218 | 3.2 | 6.4 | 0.00 | 0.05 | 0.05 | 77 | 1009.2 |
| 20260507005103 | 21 | 236 | 4.8 | 6.4 | 0.00 | 0.05 | 0.05 | 76 | 1009.2 |
| 20260507004602 | 21 | 236 | 3.2 | 6.4 | 0.00 | 0.05 | 0.05 | 75 | 1009.3 |
| 20260507004103 | 21 | 208 | 4.8 | 6.4 | 0.00 | 0.05 | 0.05 | 75 | 1009.1 |
| 20260507003603 | 21 | 213 | 3.2 | 6.4 | 0.00 | 0.05 | 0.05 | 75 | 1009.1 |
| 20260507002603 | 21 | 225 | 3.2 | 6.4 | 0.00 | 0.05 | 0.05 | 74 | 1009.2 |
| 20260507002101 | 21 | 238 | 0.0 | 6.4 | 0.00 | 0.05 | 0.05 | 73 | 1009.2 |
| 20260507001601 | 22 | 240 | 3.2 | 4.8 | 0.00 | 0.05 | 0.05 | 73 | 1009.2 |
| 20260507001101 | 22 | 244 | 1.6 | 6.4 | 0.00 | 0.05 | 0.05 | 72 | 1009.1 |
| 20260507000601 | 22 | 254 | 3.2 | 6.4 | 0.00 | 0.05 | 0.05 | 72 | 1009.1 |
| 20260506235602 | 22 | 223 | 4.8 | 12.9 | 0.00 | 0.05 | 0.05 | 71 | 1009.0 |
| 20260506235101 | 22 | 238 | 8.0 | 14.5 | 0.00 | 0.05 | 0.05 | 71 | 1009.0 |
| 20260506232602 | 22 | 272 | 8.0 | 16.1 | 0.00 | 0.05 | 0.05 | 70 | 1009.1 |
| 20260506231103 | 22 | 275 | 8.0 | 17.7 | 0.00 | 0.05 | 0.05 | 70 | 1008.8 |
| 20260506230602 | 22 | 253 | 9.7 | 20.9 | 0.00 | 0.05 | 0.05 | 69 | 1008.7 |
| 20260506225103 | 23 | 245 | 14.5 | 24.1 | 0.00 | 0.05 | 0.05 | 69 | 1008.6 |
| 20260506224602 | 23 | 224 | 11.3 | 20.9 | 0.00 | 0.05 | 0.05 | 68 | 1008.5 |
| 20260506223103 | 23 | 222 | 12.9 | 27.4 | 0.00 | 0.05 | 0.05 | 68 | 1008.7 |
| 20260506222602 | 23 | 278 | 12.9 | 27.4 | 0.00 | 0.05 | 0.05 | 68 | 1008.7 |
| 20260506222102 | 23 | 252 | 17.7 | 27.4 | 0.00 | 0.05 | 0.05 | 68 | 1008.9 |
| 20260506221601 | 23 | 259 | 12.9 | 30.6 | 0.00 | 0.05 | 0.05 | 68 | 1008.9 |
| 20260506221103 | 23 | 271 | 17.7 | 30.6 | 0.00 | 0.05 | 0.05 | 68 | 1008.9 |
| 20260506220603 | 23 | 270 | 16.1 | 33.8 | 0.00 | 0.05 | 0.05 | 68 | 1009.0 |
| 20260506215601 | 23 | 239 | 12.9 | 24.1 | 0.00 | 0.05 | 0.05 | 69 | 1008.9 |
| 20260506215102 | 23 | 229 | 9.7 | 20.9 | 0.00 | 0.05 | 0.05 | 70 | 1008.7 |
| 20260506214602 | 23 | 249 | 14.5 | 20.9 | 0.00 | 0.05 | 0.05 | 69 | 1008.8 |
| 20260506214103 | 22 | 243 | 6.4 | 16.1 | 0.00 | 0.05 | 0.05 | 71 | 1008.9 |
| 20260506213602 | 22 | 274 | 6.4 | 16.1 | 0.00 | 0.05 | 0.05 | 71 | 1008.9 |
| 20260506213102 | 22 | 217 | 9.7 | 16.1 | 0.00 | 0.05 | 0.05 | 71 | 1008.8 |
| 20260506212102 | 22 | 256 | 6.4 | 11.3 | 0.00 | 0.05 | 0.05 | 71 | 1008.9 |
| 20260506211601 | 22 | 276 | 8.0 | 11.3 | 0.00 | 0.05 | 0.05 | 71 | 1009.1 |
| 20260506211103 | 22 | 292 | 6.4 | 14.5 | 0.00 | 0.05 | 0.05 | 71 | 1009.0 |
| 20260506205603 | 22 | 278 | 11.3 | 17.7 | 0.00 | 0.05 | 0.05 | 71 | 1008.7 |
| 20260506204102 | 22 | 277 | 3.2 | 12.9 | 0.00 | 0.05 | 0.05 | 71 | 1008.5 |
| 20260506203603 | 22 | 261 | 4.8 | 16.1 | 0.00 | 0.05 | 0.05 | 71 | 1008.2 |
| 20260506203102 | 22 | 196 | 6.4 | 17.7 | 0.00 | 0.05 | 0.05 | 71 | 1008.2 |
| 20260506201602 | 22 | 265 | 14.5 | 20.9 | 0.00 | 0.05 | 0.05 | 70 | 1008.7 |
| 20260506201102 | 22 | 263 | 11.3 | 22.5 | 0.00 | 0.05 | 0.05 | 70 | 1008.8 |
| 20260506200604 | 21 | 256 | 17.7 | 30.6 | 0.00 | 0.05 | 0.05 | 70 | 1008.7 |
| 20260506200104 | 21 | 200 | 9.7 | 30.6 | 0.00 | 0.05 | 0.05 | 71 | 1008.4 |
| 20260506195602 | 21 | 236 | 9.7 | 20.9 | 0.00 | 0.05 | 0.05 | 71 | 1008.1 |
| 20260506195103 | 21 | 183 | 9.7 | 20.9 | 0.00 | 0.05 | 0.05 | 71 | 1008.3 |
| 20260506194602 | 21 | 221 | 11.3 | 25.7 | 0.00 | 0.05 | 0.05 | 72 | 1008.6 |
| 20260506194102 | 21 | 259 | 14.5 | 25.7 | 0.00 | 0.05 | 0.05 | 71 | 1008.9 |
| 20260506193602 | 21 | 248 | 9.7 | 22.5 | 0.00 | 0.05 | 0.05 | 72 | 1009.0 |
| 20260506193102 | 21 | 271 | 11.3 | 22.5 | 0.00 | 0.05 | 0.05 | 72 | 1009.2 |
| 20260506192103 | 21 | 213 | 11.3 | 29.0 | 0.00 | 0.05 | 0.05 | 73 | 1009.1 |
| 20260506191604 | 21 | 271 | 16.1 | 29.0 | 0.00 | 0.05 | 0.05 | 72 | 1009.6 |
| 20260506190602 | 21 | 217 | 16.1 | 30.6 | 0.00 | 0.05 | 0.05 | 72 | 1009.7 |
| 20260506185602 | 21 | 196 | 12.9 | 27.4 | 0.00 | 0.05 | 0.05 | 73 | 1009.7 |
| 20260506185102 | 21 | 196 | 16.1 | 27.4 | 0.00 | 0.05 | 0.05 | 73 | 1009.7 |
| 20260506184103 | 21 | 221 | 11.3 | 25.7 | 0.00 | 0.05 | 0.05 | 74 | 1010.0 |
| 20260506183606 | 21 | 196 | 12.9 | 24.1 | 0.00 | 0.05 | 0.05 | 75 | 1010.0 |
| 20260506183105 | 21 | 191 | 9.7 | 24.1 | 0.00 | 0.05 | 0.05 | 76 | 1010.2 |
| 20260506182602 | 21 | 202 | 9.7 | 22.5 | 0.00 | 0.05 | 0.05 | 76 | 1010.2 |
| 20260506182102 | 20 | 192 | 6.4 | 16.1 | 0.00 | 0.05 | 0.05 | 76 | 1010.3 |
| 20260506181602 | 20 | 215 | 8.0 | 19.3 | 0.00 | 0.05 | 0.05 | 76 | 1010.4 |
| 20260506181102 | 20 | 283 | 12.9 | 20.9 | 0.00 | 0.05 | 0.05 | 76 | 1010.4 |
| 20260506180602 | 20 | 242 | 12.9 | 20.9 | 0.00 | 0.05 | 0.05 | 76 | 1010.7 |
| 20260506175102 | 20 | 241 | 11.3 | 25.7 | 0.03 | 0.03 | 0.05 | 75 | 1010.4 |
| 20260506174603 | 20 | 230 | 14.5 | 25.7 | 0.03 | 0.03 | 0.05 | 75 | 1010.5 |
| 20260506174102 | 20 | 233 | 11.3 | 25.7 | 0.03 | 0.03 | 0.05 | 76 | 1010.5 |
| 20260506173602 | 20 | 272 | 16.1 | 25.7 | 0.03 | 0.03 | 0.05 | 80 | 1010.5 |
| 20260506173102 | 20 | 196 | 17.7 | 27.4 | 0.03 | 0.03 | 0.05 | 79 | 1010.5 |
| 20260506172601 | 20 | 224 | 14.5 | 27.4 | 0.03 | 0.03 | 0.05 | 80 | 1010.5 |
| 20260506172102 | 20 | 211 | 12.9 | 24.1 | 0.03 | 0.03 | 0.05 | 82 | 1010.5 |
| 20260506171603 | 19 | 218 | 16.1 | 30.6 | 0.03 | 0.03 | 0.05 | 82 | 1010.6 |
| 20260506171103 | 19 | 198 | 16.1 | 30.6 | 0.03 | 0.03 | 0.05 | 81 | 1010.6 |
| 20260506170602 | 19 | 234 | 9.7 | 19.3 | 0.03 | 0.03 | 0.05 | 81 | 1010.7 |
| 20260506165103 | 19 | 234 | 14.5 | 25.7 | 0.03 | 0.03 | 0.03 | 80 | 1011.0 |
| 20260506164601 | 19 | 221 | 14.5 | 24.1 | 0.03 | 0.03 | 0.03 | 80 | 1011.0 |
| 20260506163601 | 19 | 194 | 9.7 | 20.9 | 0.03 | 0.03 | 0.03 | 81 | 1011.2 |
| 20260506162601 | 18 | 224 | 9.7 | 22.5 | 0.03 | 0.03 | 0.03 | 81 | 1011.5 |
| 20260506162101 | 18 | 241 | 6.4 | 20.9 | 0.03 | 0.03 | 0.03 | 82 | 1011.6 |
| 20260506161601 | 18 | 219 | 12.9 | 20.9 | 0.03 | 0.03 | 0.03 | 81 | 1011.4 |
| 20260506161101 | 18 | 200 | 8.0 | 17.7 | 0.03 | 0.03 | 0.03 | 81 | 1011.6 |
| 20260506160609 | 18 | 277 | 11.3 | 20.9 | 0.03 | 0.03 | 0.03 | 80 | 1011.8 |
| 20260506155102 | 19 | 263 | 12.9 | 30.6 | 0.00 | 0.00 | 0.00 | 76 | 1012.1 |
| 20260506154601 | 20 | 243 | 20.9 | 35.4 | 0.00 | 0.00 | 0.00 | 75 | 1012.2 |
| 20260506154102 | 20 | 244 | 16.1 | 35.4 | 0.00 | 0.00 | 0.00 | 73 | 1012.1 |
| 20260506153059 | 20 | 238 | 14.5 | 38.6 | 0.00 | 0.00 | 0.00 | 71 | 1012.2 |
| 20260506152555 | 20 | 258 | 17.7 | 38.6 | 0.00 | 0.00 | 0.00 | 70 | 1012.1 |
| 20260506151048 | 20 | 252 | 12.9 | 27.4 | 0.00 | 0.00 | 0.00 | 71 | 1012.2 |
| 20260506150549 | 20 | 224 | 16.1 | 27.4 | 0.00 | 0.00 | 0.00 | 70 | 1012.2 |
| 20260506150047 | 20 | 238 | 12.9 | 27.4 | 0.00 | 0.00 | 0.00 | 70 | 1012.1 |
| 20260506145545 | 20 | 204 | 14.5 | 27.4 | 0.00 | 0.00 | 0.00 | 70 | 1011.9 |
| 20260506145046 | 20 | 252 | 11.3 | 27.4 | 0.00 | 0.00 | 0.00 | 70 | 1011.8 |
| 20260506143544 | 20 | 209 | 14.5 | 27.4 | 0.00 | 0.00 | 0.00 | 70 | 1011.9 |
| 20260506143036 | 20 | 202 | 14.5 | 29.0 | 0.00 | 0.00 | 0.00 | 70 | 1011.8 |
| 20260506142532 | 20 | 236 | 20.9 | 33.8 | 0.00 | 0.00 | 0.00 | 70 | 1011.9 |
| 20260506142029 | 20 | 214 | 14.5 | 33.8 | 0.00 | 0.00 | 0.00 | 69 | 1011.9 |
| 20260506141529 | 20 | 219 | 19.3 | 33.8 | 0.00 | 0.00 | 0.00 | 69 | 1011.7 |
| 20260506141029 | 20 | 205 | 14.5 | 33.8 | 0.00 | 0.00 | 0.00 | 69 | 1011.7 |
| 20260506140529 | 20 | 221 | 17.7 | 33.8 | 0.00 | 0.00 | 0.00 | 69 | 1011.8 |
| 20260506140028 | 20 | 259 | 16.1 | 27.4 | 0.00 | 0.00 | 0.00 | 69 | 1012.0 |
| 20260506134530 | 20 | 215 | 12.9 | 30.6 | 0.00 | 0.00 | 0.00 | 70 | 1011.7 |
| 20260506134029 | 20 | 238 | 14.5 | 37.0 | 0.00 | 0.00 | 0.00 | 70 | 1011.7 |
| 20260506133529 | 20 | 194 | 14.5 | 37.0 | 0.00 | 0.00 | 0.00 | 70 | 1011.8 |
| 20260506132529 | 20 | 196 | 19.3 | 30.6 | 0.00 | 0.00 | 0.00 | 70 | 1011.9 |
| 20260506131529 | 20 | 208 | 12.9 | 20.9 | 0.00 | 0.00 | 0.00 | 71 | 1012.1 |
| 20260506131029 | 20 | 218 | 9.7 | 22.5 | 0.00 | 0.00 | 0.00 | 71 | 1012.1 |
| 20260506130528 | 20 | 242 | 12.9 | 22.5 | 0.00 | 0.00 | 0.00 | 71 | 1012.1 |
| 20260506130030 | 20 | 245 | 11.3 | 29.0 | 0.00 | 0.00 | 0.00 | 71 | 1012.1 |
| 20260506125529 | 20 | 210 | 17.7 | 29.0 | 0.00 | 0.00 | 0.00 | 71 | 1012.0 |
| 20260506125030 | 20 | 213 | 9.7 | 20.9 | 0.00 | 0.00 | 0.00 | 72 | 1012.0 |
| 20260506124529 | 19 | 220 | 9.7 | 24.1 | 0.00 | 0.00 | 0.00 | 72 | 1012.1 |
| 20260506124029 | 19 | 220 | 12.9 | 24.1 | 0.00 | 0.00 | 0.00 | 72 | 1012.0 |
| 20260506123528 | 19 | 190 | 12.9 | 24.1 | 0.00 | 0.00 | 0.00 | 72 | 1012.2 |
| 20260506122044 | 19 | 261 | 16.1 | 35.4 | 0.00 | 0.00 | 0.00 | 72 | 1012.4 |